Home   Weather   Lincoln   Past weeks

Flag for USA Past Weather in Lincoln, Nebraska, USA — Yesterday and Last 2 Weeks

Now
87 °F

Sunny.


Feels Like: 89 °F
Forecast: 59 / 89 °F
Wind: 12 mph from Southeast

Location: Lincoln Municipal Airport

Current Time: Aug 19, 2017 at 5:41:01 pm

Latest Report: Aug 19, 2017 at 4:54 pm


Visibility: 10 mi

Pressure: 29.86 "Hg

Humidity: 48%

Dew Point: 65 °F

Location of LincolnLocation

Past Weather in Lincoln — Graph

°F

Lincoln Temperature Yesterday

Maximum temperature yesterday: 86 °F (at 3:54 pm)
Minimum temperature yesterday: 64 °F (at 1:54 am)
Average temperature yesterday: 75 °F

High & Low Weather Summary for the Past Weeks

 TemperatureHumidityPressure
High87 °F (Aug 14, 1:54 pm)100% (Aug 7, 1:54 am)30.22 "Hg (Aug 7, 1:54 am)
Low56 °F (Aug 8, 5:54 am)36% (Aug 4, 4:54 pm)29.68 "Hg (Aug 16, 9:54 am)
Average71 °F75%29.97 "Hg
* Reported Aug 4 3:54 pm — Aug 19 3:54 pm, Lincoln. Weather by CustomWeather, © 2017

Note: Actual official high and low records may vary slightly from our data, if they occured in-between our weather recording intervals... More about our weather records

Advertising

Lincoln Weather History for the Previous 24 Hours

Scroll right to see more
 ConditionsComfort  
Time TempWeatherWind HumidityBarometerVisibility
3:54 pm
Sat, Aug 19
85 °FSunny.13 mph50%29.87 "Hg10 mi
2:54 pm86 °FSunny.12 mph46%29.89 "Hg10 mi
1:54 pm85 °FSunny.9 mph48%29.92 "Hg10 mi
12:54 pm82 °FSunny.5 mph53%29.94 "Hg10 mi
11:54 am80 °FSunny.6 mph49%29.96 "Hg10 mi
10:54 am76 °FSunny.6 mph58%29.96 "Hg10 mi
9:54 am72 °FSunny.6 mph68%29.96 "Hg10 mi
8:54 am68 °FSunny.5 mph82%29.96 "Hg10 mi
7:54 am64 °FSunny.No wind84%29.97 "Hg10 mi
6:54 am59 °FSunny.6 mph90%29.97 "Hg10 mi
5:54 am60 °FClear.3 mph93%29.95 "Hg10 mi
4:54 am62 °FClear.3 mph90%29.94 "Hg10 mi
3:54 am67 °FClear.No wind81%29.93 "Hg10 mi
2:54 am69 °FClear.No wind81%29.94 "Hg10 mi
1:54 am67 °FClear.3 mph93%29.94 "Hg10 mi
12:54 am68 °FClear.No wind90%29.94 "Hg10 mi
11:54 pm
Fri, Aug 18
70 °FClear.7 mph90%29.93 "Hg10 mi
10:54 pm70 °FClear.3 mph87%29.93 "Hg10 mi
9:54 pm75 °FPassing clouds.3 mph76%29.91 "Hg10 mi
8:54 pm80 °FClear.3 mph64%29.89 "Hg10 mi
7:54 pm82 °FSunny.5 mph58%29.88 "Hg10 mi
6:54 pm84 °FSunny.7 mph53%29.88 "Hg10 mi
5:54 pm85 °FSunny.3 mph50%29.88 "Hg10 mi
Weather by CustomWeather, © 2017

See weather overviewHow to use our weather pages